Location: Asheville, NC
(35.6000°N, 82.5500°W)
Time: 13:57:16
(UTC-04:00)

XW-2A - Pass Details

Date: 09 March 2018
Orbit: 434 x 455 km, 97.4° (Epoch: 19 June)

Event Time Altitude Azimuth Distance (km) Brightness Sun altitude
Exits shadow 20:07:15 - 184° (S) 2,069 ? -20.0°
Reaches altitude 10° 20:08:34 10° 190° (S) 1,530 ? -20.3°
Maximum altitude 20:11:40 39° 261° (W) 664 ? -20.9°
Drops below altitude 10° 20:14:47 10° 332° (NNW) 1,542 ? -21.5°
Sets 20:16:53 0° 340° (NNW) 2,416 ? -21.9°
